Location: Melizzano
(41.1500°N, 14.5000°E)
Time: 18:32:31
(UTC+00:00)

Terra - Pass Details

Date: 11 May 2021
Orbit: 701 x 703 km, 98.2° (Epoch: 22 June)

Event Time Altitude Azimuth Distance (km) Brightness Sun altitude
Exits shadow 19:53:54 18° 87° (E) 1,679 3.4 -17.0°
Maximum altitude 19:55:15 21° 65° (ENE) 1,577 3.4 -17.1°
Drops below altitude 10° 19:58:44 10° 18° (NNE) 2,179 4.7 -17.6°
Sets 20:01:28 0° 2° (N) 3,102 5.8 -18.0°
